TimeAKST,TemperatureF,Dew PointF,Humidity,Sea Level PressureIn,VisibilityMPH,Wind Direction,Wind SpeedMPH,Gust SpeedMPH,PrecipitationIn,Events,Conditions,WindDirDegrees,DateUTC
12:09 AM,-29.2,-9999,N/A,30.06,1.8,Calm,Calm,-,N/A,,Overcast,0,2012-12-04 09:09:00
12:19 AM,-31.0,-9999,N/A,30.06,-9999.0,Calm,Calm,-,N/A,,Overcast,0,2012-12-04 09:19:00
12:29 AM,-32.8,-9999,N/A,30.06,4.0,Calm,Calm,-,N/A,,Haze,0,2012-12-04 09:29:00
12:37 AM,-32.8,-9999,N/A,30.06,5.0,Calm,Calm,-,N/A,,Haze,0,2012-12-04 09:37:00
12:44 AM,-32.8,-9999,N/A,30.06,6.2,SE,3.5,-,N/A,,Partly Cloudy,130,2012-12-04 09:44:00
12:56 AM,-34.1,-9999,N/A,30.13,7.0,ESE,3.5,-,N/A,,Clear,110,2012-12-04 09:56:00
1:56 AM,-34.1,-9999,N/A,30.13,5.0,Calm,Calm,-,N/A,,Haze,0,2012-12-04 10:56:00
2:36 AM,-34.6,-9999,N/A,30.04,6.0,Calm,Calm,-,N/A,,Haze,0,2012-12-04 11:36:00
2:45 AM,-34.6,-9999,N/A,30.04,6.0,Calm,Calm,-,N/A,,Haze,0,2012-12-04 11:45:00
2:56 AM,-34.1,-9999,N/A,30.11,4.0,Calm,Calm,-,N/A,,Haze,0,2012-12-04 11:56:00
3:43 AM,-36.4,-9999,N/A,30.03,4.0,Calm,Calm,-,N/A,,Haze,0,2012-12-04 12:43:00
3:56 AM,-36.9,-9999,N/A,30.10,5.0,Calm,Calm,-,N/A,,Haze,0,2012-12-04 12:56:00
4:56 AM,-33.0,-9999,N/A,30.09,10.0,ENE,3.5,-,N/A,,Overcast,60,2012-12-04 13:56:00
5:56 AM,-34.1,-9999,N/A,30.08,10.0,Calm,Calm,-,N/A,,Partly Cloudy,0,2012-12-04 14:56:00
6:30 AM,-34.6,-9999,N/A,30.01,7.0,ENE,3.5,-,N/A,,Partly Cloudy,70,2012-12-04 15:30:00
6:55 AM,-34.6,-9999,N/A,30.08,7.0,ENE,4.6,-,N/A,,Partly Cloudy,60,2012-12-04 15:55:00
7:55 AM,-36.4,-9999,N/A,30.08,7.0,ENE,3.5,-,N/A,,Partly Cloudy,60,2012-12-04 16:55:00
8:55 AM,-36.4,-9999,N/A,30.07,7.0,Variable,3.5,-,N/A,,Partly Cloudy,0,2012-12-04 17:55:00
9:55 AM,-40.0,-9999,N/A,30.06,6.0,Calm,Calm,-,N/A,,Partly Cloudy,0,2012-12-04 18:55:00
10:55 AM,-40.0,-9999,N/A,30.04,6.0,Calm,Calm,-,N/A,,Partly Cloudy,0,2012-12-04 19:55:00
11:55 AM,-40.0,-9999,N/A,30.03,6.0,Calm,Calm,-,N/A,,Partly Cloudy,0,2012-12-04 20:55:00
12:55 PM,-34.6,-9999,N/A,30.02,6.0,Calm,Calm,-,N/A,,Partly Cloudy,0,2012-12-04 21:55:00
1:55 PM,-34.6,-9999,N/A,30.00,6.0,Calm,Calm,-,N/A,,Partly Cloudy,0,2012-12-04 22:55:00
2:55 PM,-36.4,-9999,N/A,29.98,7.0,Calm,Calm,-,N/A,,Partly Cloudy,0,2012-12-04 23:55:00
3:55 PM,-38.2,-9999,N/A,29.98,7.0,Calm,Calm,-,N/A,,Partly Cloudy,0,2012-12-05 00:55:00
4:55 PM,-36.4,-9999,N/A,29.96,7.0,Calm,Calm,-,N/A,,Partly Cloudy,0,2012-12-05 01:55:00
5:55 PM,-38.2,-9999,N/A,29.95,7.0,Calm,Calm,-,N/A,,Partly Cloudy,0,2012-12-05 02:55:00
6:55 PM,-36.4,-9999,N/A,29.94,7.0,ENE,3.5,-,N/A,,Partly Cloudy,70,2012-12-05 03:55:00
7:55 PM,-34.6,-9999,N/A,29.94,7.0,Calm,Calm,-,N/A,,Scattered Clouds,0,2012-12-05 04:55:00
8:55 PM,-34.6,-9999,N/A,29.93,7.0,Calm,Calm,-,N/A,,Scattered Clouds,0,2012-12-05 05:55:00
9:55 PM,-32.8,-9999,N/A,29.93,7.0,Calm,Calm,-,N/A,,Scattered Clouds,0,2012-12-05 06:55:00
10:56 PM,-31.0,-9999,N/A,29.91,5.0,Calm,Calm,-,0.00,,Haze,0,2012-12-05 07:56:00
11:07 PM,-29.2,-9999,N/A,29.84,6.0,Calm,Calm,-,N/A,,Haze,0,2012-12-05 08:07:00
11:21 PM,-31.0,-9999,N/A,29.85,6.0,Calm,Calm,-,N/A,,Haze,0,2012-12-05 08:21:00
11:34 PM,-31.0,-9999,N/A,29.84,4.0,Calm,Calm,-,N/A,,Haze,0,2012-12-05 08:34:00
11:44 PM,-31.0,-9999,N/A,29.84,6.2,Calm,Calm,-,N/A,,Mostly Cloudy,0,2012-12-05 08:44:00
11:54 PM,-31.0,-9999,N/A,29.84,10.0,Calm,Calm,-,N/A,,Scattered Clouds,0,2012-12-05 08:54:00
11:56 PM,-31.0,-9999,N/A,29.92,10.0,ESE,3.5,-,N/A,,Scattered Clouds,120,2012-12-05 08:56:00